Regional Weather Roundup
Issued by NWS

Home | Current Version | Previous Version | Text Only | Print | Product List | Glossary On
Versions: 1 2 3 4 5 6 7 8 9 10 11 12 13 14 15 16 17 18 19 20 21 22 23 24 25 26 27 28 29 30 31 32 33 34 35 36 37 38 39 40 41 42 43 44 45 46 47 48 49 50
000
ASUS43 KBIS 031731
RWRND
NORTH DAKOTA REGIONAL WEATHER ROUNDUP
NATIONAL WEATHER SERVICE EASTERN NORTH DAKOTA/GRAND FORKS ND
1100 AM CST FRI DEC 03 2021

  NOTE: "FAIR" INDICATES FEW OR NO CLOUDS BELOW 12,000 FEET WITH NO
  SIGNIFICANT WEATHER AND/OR OBSTRUCTIONS TO VISIBILITY.

NDZ001>003-009>011-017-031800-
...NORTHWEST NORTH DAKOTA...

CITY           SKY/WX    TMP DP  RH WIND       PRES   REMARKS
WILLISTON      NOT AVBL
MINOT          FAIR      33  18  53 W15G21    30.18R WCI  23
MINOT AFB      FAIR      31  15  50 W13       30.16R WCI  22
$$

NDZ018>021-031>035-040>046-031800-
...SOUTHWEST NORTH DAKOTA...

CITY           SKY/WX    TMP DP  RH WIND       PRES   REMARKS
BISMARCK       FAIR      36  22  56 NW12      30.23R WCI  28
DICKINSON      PTSUNNY   31  18  58 NW7       30.20R WCI  24
GARRISON         N/A     32  19  58 NW15      30.20R WCI  22
HETTINGER      CLOUDY    33  18  53 N8        30.22R WCI  26
$$

NDZ004>008-012>016-024-026-027-054-031800-
...NORTHEAST NORTH DAKOTA...

CITY           SKY/WX    TMP DP  RH WIND       PRES   REMARKS
GRAND FORKS    PTSUNNY   33  26  75 W13       30.12R WCI  24
GRAND FORKS AF CLOUDY    33  21  62 NW12G18   30.12R WCI  24
DEVILS LAKE    FLURRIES  29  23  78 W15       30.13R WCI  18
$$

NDZ022-023-025-028>030-036>039-047>053-031800-
...SOUTHEAST NORTH DAKOTA...

CITY           SKY/WX    TMP DP  RH WIND       PRES   REMARKS
JAMESTOWN      FAIR      37  27  67 NW17      30.16R WCI  27
FARGO          CLOUDY    33  30  88 W9        30.15R FOG     WCI  25
WAHPETON       FOG       34  32  93 NW9       30.14R VSB 1/4 WCI  26
$$



USA.gov is the U.S. government's official web portal to all federal, state and local government web resources and services.